FW2972 Weather Reports


Display with metric or nautical units.
time (UTC)temp
F
wind
direction
speed
MPH
gust
MPH
rain 1hr
in
rain 24hr
in
rain mn
in
humidity
%
barometer
mb
20260902112707 80 243 0.0 3.0 0.00 0.00 0.00 98 1015.0
20260902112204 80 205 0.0 3.0 0.00 0.00 0.00 98 1014.8
20260902111659 80 219 0.0 2.0 0.00 0.00 0.00 98 1014.8
20260902111155 80 5 0.0 3.0 0.00 0.00 0.00 98 1015.0
20260902110650 80 198 2.0 4.0 0.00 0.00 0.00 98 1014.8
20260902110147 80 141 0.0 3.0 0.00 0.00 0.00 98 1014.6
20260902105646 80 298 0.0 3.0 0.00 0.00 0.00 98 1014.9
20260902105142 80 223 0.0 2.0 0.00 0.00 0.00 98 1014.8
20260902104637 80 217 0.0 2.0 0.00 0.00 0.00 98 1014.9
20260902104132 80 199 1.0 2.0 0.00 0.00 0.00 98 1015.0
20260902103632 80 227 2.0 3.0 0.00 0.00 0.00 98 1014.9
20260902103127 80 233 0.0 2.0 0.00 0.00 0.00 98 1015.1
20260902102623 80 218 1.0 2.0 0.00 0.00 0.00 97 1014.7
20260902102120 80 161 0.0 2.0 0.00 0.00 0.00 97 1014.9
20260902101615 80 297 0.0 2.0 0.00 0.00 0.00 97 1014.8
20260902101114 80 321 0.0 2.0 0.00 0.00 0.00 97 1014.7
20260902100609 80 242 0.0 1.0 0.00 0.00 0.00 97 1014.6
20260902100104 80 179 0.0 3.0 0.00 0.00 0.00 97 1014.6
20260902095603 80 218 0.0 4.0 0.00 0.00 0.00 97 1014.5
20260902095103 80 254 3.0 4.0 0.00 0.00 0.00 97 1014.5
20260902094558 80 206 0.0 2.0 0.00 0.00 0.00 97 1014.5
20260902094054 80 291 1.0 3.0 0.00 0.00 0.00 97 1014.7
20260902093553 80 237 0.0 5.0 0.00 0.00 0.00 97 1014.8
20260902093048 80 256 0.0 3.0 0.00 0.00 0.00 97 1014.8
20260902092538 80 122 0.0 3.0 0.00 0.00 0.00 97 1014.5
20260902092033 80 283 2.0 3.0 0.00 0.00 0.00 97 1014.5
20260902091528 80 230 2.0 4.0 0.00 0.00 0.00 97 1014.6
20260902091024 80 200 1.0 1.0 0.00 0.00 0.00 97 1014.5
20260902090520 80 214 0.0 5.0 0.00 0.00 0.00 97 1014.5
20260902090018 80 278 2.0 5.0 0.00 0.00 0.00 97 1014.2
20260902085513 80 140 0.0 3.0 0.00 0.00 0.00 97 1014.5
20260902085008 80 236 0.0 3.0 0.00 0.00 0.00 97 1014.4
20260902084504 80 340 0.0 3.0 0.00 0.00 0.00 97 1014.5
20260902083959 80 106 2.0 3.0 0.00 0.00 0.00 97 1014.5
20260902083454 80 124 2.0 5.0 0.00 0.00 0.00 97 1014.4
20260902082949 80 226 1.0 3.0 0.00 0.00 0.00 97 1014.4
20260902082445 80 70 0.0 3.0 0.00 0.00 0.00 97 1014.4
20260902081941 80 200 0.0 5.0 0.00 0.00 0.00 97 1014.4
20260902081438 80 232 0.0 3.0 0.00 0.00 0.00 97 1014.8
20260902080932 80 204 1.0 3.0 0.00 0.00 0.00 97 1014.8
20260902080428 80 315 1.0 5.0 0.00 0.00 0.00 96 1014.7
20260902075927 80 252 0.0 2.0 0.00 0.00 0.00 97 1014.8
20260902075424 80 235 0.0 3.0 0.00 0.00 0.00 97 1014.8
20260902074919 80 280 2.0 4.0 0.00 0.00 0.00 97 1014.7
20260902074415 80 104 0.0 5.0 0.00 0.00 0.00 97 1014.5
20260902073909 80 136 1.0 3.0 0.00 0.00 0.00 97 1014.7
20260902073405 80 284 0.0 3.0 0.00 0.00 0.00 97 1014.6
20260902072901 80 229 0.0 2.0 0.00 0.00 0.00 96 1014.6
20260902072357 80 80 0.0 3.0 0.00 0.00 0.00 96 1014.6
20260902071853 80 351 0.0 2.0 0.00 0.00 0.00 96 1014.8
20260902071353 80 327 0.0 3.0 0.00 0.00 0.00 96 1014.8
20260902070849 80 221 0.0 3.0 0.00 0.00 0.00 96 1014.8
20260902070344 81 89 0.0 3.0 0.00 0.00 0.00 96 1014.7
20260902065842 81 204 1.0 3.0 0.00 0.00 0.00 96 1014.6
20260902065338 81 203 2.0 4.0 0.00 0.00 0.00 95 1014.6
20260902064833 81 73 1.0 3.0 0.00 0.00 0.00 95 1014.5
20260902064330 81 295 2.0 4.0 0.00 0.00 0.00 95 1014.7
20260902063825 81 251 3.0 6.0 0.00 0.00 0.00 95 1014.7
20260902063325 81 196 0.0 3.0 0.00 0.00 0.00 95 1014.7
20260902062819 81 250 0.0 3.0 0.00 0.00 0.00 95 1014.8
20260902062314 81 215 0.0 4.0 0.00 0.00 0.00 95 1014.6
20260902061813 81 272 0.0 4.0 0.00 0.00 0.00 95 1014.5
20260902061309 81 239 2.0 3.0 0.00 0.00 0.00 95 1014.5
20260902060805 81 223 2.0 5.0 0.00 0.00 0.00 95 1014.6
20260902060301 81 95 1.0 5.0 0.00 0.00 0.00 95 1014.5
20260902055755 81 151 0.0 4.0 0.00 0.00 0.00 95 1014.6
20260902055247 81 205 0.0 7.0 0.00 0.00 0.00 94 1014.6
20260902054746 81 207 1.0 3.0 0.00 0.00 0.00 94 1014.6
20260902054242 81 298 0.0 3.0 0.00 0.00 0.00 94 1014.5
20260902053737 81 299 1.0 5.0 0.00 0.00 0.00 93 1014.4
20260902053237 81 179 0.0 4.0 0.00 0.00 0.00 93 1014.6
20260902052731 81 192 0.0 5.0 0.00 0.00 0.00 93 1014.6
20260902052227 81 271 0.0 4.0 0.00 0.00 0.00 93 1014.7
20260902051726 81 245 3.0 3.0 0.00 0.00 0.00 93 1014.6
20260902051220 81 146 1.0 2.0 0.00 0.00 0.00 94 1014.7
20260902050715 80 265 2.0 2.0 0.00 0.00 0.00 94 1014.7
20260902050211 80 336 0.0 1.0 0.00 0.00 0.00 94 1014.8
20260902045711 80 345 0.0 1.0 0.00 0.04 0.04 94 1014.7
20260902045207 80 89 0.0 2.0 0.00 0.04 0.04 93 1014.7
20260902044702 80 119 0.0 0.0 0.00 0.04 0.04 93 1014.7
20260902044158 80 103 0.0 1.0 0.00 0.04 0.04 93 1014.6
20260902043653 80 235 0.0 2.0 0.00 0.04 0.04 92 1014.6
20260902043148 80 290 0.0 2.0 0.00 0.04 0.04 92 1014.7
20260902042647 80 252 1.0 3.0 0.00 0.04 0.04 92 1014.9
20260902042143 80 131 0.0 2.0 0.00 0.04 0.04 92 1015.0
20260902041642 80 129 0.0 2.0 0.00 0.04 0.04 92 1014.7
20260902041137 80 130 0.0 2.0 0.00 0.04 0.04 93 1014.7
20260902040636 80 189 0.0 2.0 0.00 0.04 0.04 92 1014.8
20260902040132 80 211 1.0 2.0 0.00 0.04 0.04 93 1014.9
20260902035630 80 220 0.0 2.0 0.00 0.04 0.04 93 1014.7
20260902035126 80 217 0.0 2.0 0.00 0.04 0.04 93 1014.7
20260902034625 80 230 0.0 1.0 0.00 0.04 0.04 93 1014.8
20260902034119 80 142 0.0 2.0 0.00 0.04 0.04 93 1014.8
20260902033618 80 242 0.0 0.0 0.00 0.04 0.04 93 1014.7
20260902033113 80 269 0.0 2.0 0.00 0.04 0.04 93 1014.9
20260902032612 80 164 0.0 1.0 0.00 0.04 0.04 93 1014.8
20260902032107 80 269 0.0 0.0 0.00 0.04 0.04 93 1014.9
20260902031601 80 138 0.0 1.0 0.00 0.04 0.04 92 1014.6
20260902031057 80 202 0.0 2.0 0.00 0.04 0.04 92 1014.7
20260902030552 80 230 0.0 1.0 0.00 0.04 0.04 93 1014.5
20260902030052 80 161 2.0 2.0 0.00 0.04 0.04 93 1014.4
20260902025552 80 154 0.0 1.0 0.00 0.04 0.04 93 1014.4
20260902025047 80 180 0.0 1.0 0.00 0.04 0.04 93 1014.1
20260902024543 80 15 0.0 0.0 0.00 0.04 0.04 93 1014.0
20260902024042 80 15 0.0 1.0 0.00 0.04 0.04 93 1014.1
20260902023538 80 235 0.0 1.0 0.00 0.04 0.04 93 1014.2
20260902023033 80 305 1.0 2.0 0.00 0.04 0.04 92 1014.3
20260902022527 80 113 0.0 2.0 0.00 0.04 0.04 92 1014.1
20260902022023 80 110 0.0 1.0 0.00 0.04 0.04 92 1013.9
20260902021519 80 22 0.0 0.0 0.00 0.04 0.04 92 1013.9
20260902021014 80 269 0.0 2.0 0.00 0.04 0.04 92 1013.7
20260902020509 80 230 0.0 3.0 0.00 0.04 0.04 92 1013.4
20260902020005 80 223 1.0 1.0 0.00 0.04 0.04 92 1013.8
20260902015501 80 205 0.0 2.0 0.00 0.04 0.04 93 1013.6
20260902014956 80 150 0.0 1.0 0.00 0.04 0.04 93 1013.7
20260902014452 80 205 0.0 1.0 0.00 0.04 0.04 93 1013.6
20260902013952 80 117 0.0 0.0 0.00 0.04 0.04 93 1013.5
20260902013447 80 255 0.0 1.0 0.00 0.04 0.04 93 1013.5
20260902012942 80 269 0.0 1.0 0.00 0.04 0.04 93 1013.3
20260902012438 80 130 2.0 2.0 0.00 0.04 0.04 93 1013.3
20260902011933 80 209 0.0 0.0 0.00 0.04 0.04 93 1013.3
20260902011428 80 209 0.0 0.0 0.00 0.04 0.04 92 1013.1
20260902010928 80 25 0.0 0.0 0.00 0.04 0.04 92 1013.1
20260902010423 80 322 0.0 1.0 0.00 0.04 0.04 92 1012.9
20260902005922 80 224 0.0 1.0 0.00 0.04 0.04 92 1013.0
20260902005421 80 209 0.0 1.0 0.00 0.04 0.04 91 1013.2
20260902004918 81 191 0.0 2.0 0.00 0.04 0.04 91 1013.1
20260902004417 81 224 0.0 1.0 0.00 0.04 0.04 91 1013.4
20260902003912 81 274 1.0 2.0 0.00 0.04 0.04 91 1013.1
20260902003407 81 279 0.0 3.0 0.00 0.04 0.04 91 1013.2
20260902002903 81 297 0.0 2.0 0.00 0.04 0.04 91 1013.6
20260902002403 81 282 0.0 3.0 0.00 0.04 0.04 90 1013.3
20260902001857 81 326 0.0 2.0 0.00 0.04 0.04 90 1013.7
20260902001352 81 249 0.0 0.0 0.00 0.04 0.04 90 1013.4
20260902000847 81 230 0.0 2.0 0.00 0.04 0.04 90 1013.7
20260902000344 81 157 0.0 2.0 0.00 0.04 0.04 89 1013.6
20260901235837 81 141 1.0 1.0 0.00 0.04 0.04 89 1013.6
20260901235337 81 231 0.0 2.0 0.00 0.04 0.04 89 1013.5
20260901234832 81 357 1.0 3.0 0.00 0.04 0.04 89 1013.3
20260901234326 82 317 1.0 3.0 0.00 0.04 0.04 89 1013.3
20260901233821 82 244 1.0 10.0 0.00 0.04 0.04 89 1013.6
20260901233317 82 11 0.0 4.0 0.00 0.04 0.04 89 1013.4
20260901232813 82 261 0.0 4.0 0.00 0.04 0.04 89 1013.6
20260901232307 82 256 0.0 3.0 0.00 0.04 0.04 90 1013.5
20260901231804 82 336 1.0 3.0 0.00 0.04 0.04 90 1013.5
20260901231300 82 78 1.0 2.0 0.00 0.04 0.04 90 1013.5
20260901230756 82 343 0.0 3.0 0.00 0.04 0.04 91 1013.8
20260901230255 82 10 0.0 2.0 0.00 0.04 0.04 91 1013.7
20260901225750 82 343 1.0 2.0 0.00 0.04 0.04 91 1013.8
20260901225244 82 230 0.0 2.0 0.00 0.04 0.04 92 1013.9
20260901224741 82 322 1.0 5.0 0.00 0.04 0.04 91 1013.9
20260901224236 82 269 0.0 1.0 0.00 0.04 0.04 93 1014.0
20260901223733 83 296 0.0 3.0 0.00 0.04 0.04 92 1014.1
20260901223232 83 269 0.0 2.0 0.00 0.04 0.04 92 1013.8
20260901222728 83 318 1.0 3.0 0.00 0.04 0.04 91 1013.9
20260901222219 83 6 1.0 3.0 0.00 0.04 0.04 92 1014.0
20260901221715 83 332 1.0 3.0 0.00 0.04 0.04 92 1013.7
20260901221211 83 269 0.0 2.0 0.00 0.04 0.04 93 1013.8
20260901220709 83 202 0.0 1.0 0.02 0.04 0.04 93 1013.8
20260901220209 83 321 0.0 3.0 0.00 0.03 0.03 93 1013.7
20260901215708 83 3 0.0 1.0 0.00 0.03 0.03 93 1013.7
20260901215202 83 335 0.0 3.0 0.00 0.03 0.03 93 1013.8
20260901214701 84 322 0.0 3.0 0.00 0.03 0.03 93 1013.6
20260901214155 84 332 0.0 2.0 0.02 0.03 0.03 93 1013.9
20260901213655 84 5 0.0 3.0 0.02 0.03 0.03 91 1014.1
20260901213150 84 269 0.0 4.0 0.00 0.03 0.03 90 1014.2
20260901212649 84 258 3.0 4.0 0.00 0.03 0.03 89 1014.3
20260901212146 85 268 1.0 3.0 0.00 0.03 0.03 88 1014.5
20260901211645 85 254 1.0 3.0 0.00 0.03 0.03 86 1014.6
20260901211142 85 304 2.0 3.0 0.00 0.03 0.03 86 1014.5
20260901210637 85 297 0.0 2.0 0.00 0.03 0.03 86 1014.5
20260901210133 85 323 2.0 3.0 0.00 0.03 0.03 86 1014.4
20260901205629 85 344 0.0 3.0 0.00 0.03 0.03 86 1014.5
20260901205129 84 359 0.0 3.0 0.00 0.03 0.03 86 1014.5
20260901204624 84 325 1.0 3.0 0.00 0.03 0.03 87 1014.1
20260901204119 84 322 0.0 2.0 0.00 0.03 0.03 87 1014.2
20260901203619 84 338 2.0 4.0 0.00 0.03 0.03 86 1014.1
20260901203114 84 277 2.0 6.0 0.00 0.03 0.03 87 1013.9
20260901202614 84 236 0.0 3.0 0.00 0.03 0.03 88 1014.0
20260901202110 84 312 0.0 4.0 0.00 0.03 0.03 87 1014.2
20260901201606 84 303 2.0 5.0 0.00 0.03 0.03 87 1014.3
20260901201105 84 266 1.0 3.0 0.00 0.03 0.03 88 1014.2
20260901200604 83 246 0.0 2.0 0.00 0.03 0.03 88 1014.4
20260901200059 83 273 2.0 5.0 0.00 0.03 0.03 88 1014.7
20260901195557 83 254 1.0 3.0 0.00 0.03 0.03 90 1014.5
20260901195057 82 302 1.0 3.0 0.00 0.03 0.03 90 1015.0
20260901194552 82 252 1.0 3.0 0.00 0.03 0.03 90 1014.9
20260901194048 82 235 0.0 1.0 0.00 0.03 0.03 91 1015.3
20260901193542 82 269 0.0 4.0 0.02 0.03 0.03 91 1015.1
20260901193037 82 275 3.0 5.0 0.02 0.03 0.03 90 1015.2
20260901192532 82 15 0.0 3.0 0.00 0.02 0.02 92 1015.1
20260901192028 83 345 1.0 2.0 0.02 0.02 0.02 91 1015.2
20260901191524 83 6 0.0 2.0 0.02 0.02 0.02 93 1015.4
20260901191020 82 269 0.0 3.0 0.00 0.02 0.02 93 1015.3
20260901190515 82 300 2.0 2.0 0.00 0.02 0.02 93 1015.5
20260901190014 83 253 1.0 2.0 0.00 0.02 0.02 92 1015.5
20260901185513 83 264 0.0 1.0 0.00 0.02 0.02 92 1015.7
20260901185012 82 310 0.0 0.0 0.02 0.02 0.02 92 1015.5
20260901184508 82 329 0.0 2.0 0.02 0.02 0.02 90 1015.6
20260901184003 83 326 0.0 2.0 0.02 0.02 0.02 91 1015.8
20260901183457 83 267 0.0 2.0 0.02 0.02 0.02 89 1015.6
20260901182953 83 269 0.0 3.0 0.00 0.01 0.01 90 1015.9
20260901182449 83 305 0.0 2.0 0.00 0.01 0.01 89 1015.7
20260901181948 84 255 0.0 4.0 0.00 0.01 0.01 89 1015.7
20260901181443 83 349 0.0 3.0 0.00 0.01 0.01 89 1015.7
20260901180942 83 324 0.0 3.0 0.00 0.01 0.01 89 1015.7
20260901180442 84 311 0.0 1.0 0.00 0.01 0.01 90 1015.8
20260901175940 83 17 0.0 4.0 0.00 0.01 0.01 89 1015.5
20260901175436 84 141 0.0 1.0 0.00 0.01 0.01 90 1015.9
20260901174930 83 273 0.0 3.0 0.02 0.01 0.01 89 1015.8
20260901174426 83 252 3.0 5.0 0.02 0.01 0.01 89 1016.0
20260901173921 83 284 1.0 4.0 0.00 0.01 0.01 89 1016.0
20260901173422 83 249 0.0 3.0 0.00 0.01 0.01 89 1016.3
20260901172918 84 299 0.0 3.0 0.00 0.01 0.01 88 1016.5
20260901172413 84 348 0.0 2.0 0.02 0.01 0.01 88 1016.4
20260901171911 84 205 0.0 1.0 0.00 0.00 0.00 88 1016.8
20260901171409 84 212 0.0 2.0 0.02 0.00 0.00 87 1016.9
20260901170908 84 216 2.0 2.0 0.02 0.00 0.00 88 1016.8
20260901170403 84 135 0.0 2.0 0.00 0.00 0.00 88 1016.9
20260901165857 84 338 0.0 2.0 0.00 0.00 0.00 86 1016.8
20260901165352 84 224 0.0 2.0 0.00 0.00 0.00 85 1017.0
20260901164849 85 0 0.0 4.0 0.00 0.00 0.00 84 1017.1
20260901164344 85 230 0.0 3.0 0.00 0.00 0.00 82 1017.2
20260901163843 85 259 1.0 3.0 0.00 0.00 0.00 79 1017.1
20260901163338 86 258 0.0 3.0 0.00 0.00 0.00 81 1017.1
20260901162833 86 15 0.0 4.0 0.00 0.00 0.00 81 1017.2
20260901162332 86 312 0.0 3.0 0.00 0.00 0.00 80 1017.1
20260901161832 86 310 0.0 4.0 0.00 0.00 0.00 81 1017.3
20260901161326 86 239 1.0 5.0 0.00 0.00 0.00 81 1017.0
20260901160821 86 335 0.0 4.0 0.00 0.00 0.00 81 1016.9
20260901160318 87 340 2.0 5.0 0.00 0.00 0.00 80 1017.1
20260901155817 86 256 0.0 3.0 0.00 0.00 0.00 81 1017.1
20260901155312 86 218 2.0 6.0 0.00 0.00 0.00 81 1016.9
20260901154808 87 89 0.0 3.0 0.00 0.00 0.00 82 1016.9
20260901154302 87 295 2.0 3.0 0.00 0.00 0.00 80 1016.8
20260901153756 87 321 2.0 3.0 0.00 0.00 0.00 81 1016.7
20260901153251 87 8 0.0 4.0 0.00 0.00 0.00 81 1016.5
20260901152750 87 170 0.0 2.0 0.00 0.00 0.00 81 1016.5
20260901152249 86 317 0.0 2.0 0.00 0.00 0.00 82 1016.6
20260901151744 87 337 0.0 2.0 0.00 0.00 0.00 82 1016.6
20260901151244 86 209 0.0 2.0 0.00 0.00 0.00 83 1016.6
20260901150744 86 345 0.0 4.0 0.00 0.00 0.00 84 1016.5
20260901150242 86 27 1.0 2.0 0.00 0.00 0.00 85 1016.5
20260901145740 85 343 1.0 2.0 0.00 0.00 0.00 84 1016.6
20260901145240 85 218 2.0 3.0 0.00 0.00 0.00 85 1016.5
20260901144735 84 310 0.0 4.0 0.00 0.00 0.00 86 1016.6
20260901144231 84 19 0.0 2.0 0.00 0.00 0.00 86 1016.6
20260901143726 84 212 0.0 0.0 0.00 0.00 0.00 87 1016.6
20260901143222 84 7 0.0 3.0 0.00 0.00 0.00 87 1016.5
20260901142718 84 314 0.0 4.0 0.00 0.00 0.00 87 1016.7
20260901142217 83 116 0.0 3.0 0.00 0.00 0.00 87 1016.7
20260901141713 83 295 0.0 4.0 0.00 0.00 0.00 88 1016.6
20260901141207 83 232 0.0 2.0 0.00 0.00 0.00 89 1016.8
20260901140706 83 255 0.0 1.0 0.00 0.00 0.00 90 1016.5
20260901140204 82 284 0.0 0.0 0.00 0.00 0.00 91 1016.5
20260901135700 82 309 0.0 1.0 0.00 0.00 0.00 92 1016.3
20260901135154 81 326 0.0 3.0 0.00 0.00 0.00 92 1016.4
20260901134650 81 264 3.0 4.0 0.00 0.00 0.00 91 1016.3
20260901134145 81 0 0.0 2.0 0.00 0.00 0.00 91 1016.3
20260901133644 81 2 0.0 4.0 0.00 0.00 0.00 91 1016.6
20260901133143 81 210 0.0 4.0 0.00 0.00 0.00 92 1016.4
20260901132638 81 189 0.0 3.0 0.00 0.00 0.00 92 1016.6
20260901132137 81 55 0.0 2.0 0.00 0.00 0.00 92 1016.5
20260901131632 81 6 0.0 3.0 0.00 0.00 0.00 93 1016.4
20260901131126 81 236 0.0 4.0 0.00 0.00 0.00 94 1016.2
20260901130621 80 327 1.0 3.0 0.00 0.00 0.00 94 1016.4
20260901130120 80 37 0.0 2.0 0.00 0.00 0.00 95 1016.4
20260901125618 80 304 0.0 2.0 0.00 0.00 0.00 95 1016.2
20260901125113 80 322 0.0 1.0 0.00 0.00 0.00 95 1016.2
20260901124608 80 135 0.0 2.0 0.00 0.00 0.00 96 1016.1
20260901124103 80 3 0.0 2.0 0.00 0.00 0.00 95 1016.2
20260901123602 80 224 0.0 2.0 0.00 0.00 0.00 96 1016.3
20260901123057 80 180 0.0 0.0 0.00 0.00 0.00 96 1016.0
20260901122555 79 6 0.0 0.0 0.00 0.00 0.00 96 1015.9
20260901122049 79 330 0.0 2.0 0.00 0.00 0.00 96 1015.7
20260901121550 79 264 0.0 2.0 0.00 0.00 0.00 97 1015.8
20260901121045 79 173 0.0 1.0 0.00 0.00 0.00 97 1015.5
20260901120544 79 315 0.0 2.0 0.00 0.00 0.00 98 1015.6
20260901120040 79 50 0.0 2.0 0.00 0.00 0.00 98 1015.6
20260901115535 79 345 1.0 2.0 0.00 0.00 0.00 98 1015.4
20260901115033 79 129 0.0 0.0 0.00 0.00 0.00 98 1015.5
20260901114528 79 256 0.0 0.0 0.00 0.00 0.00 98 1015.6
20260901114026 79 205 0.0 1.0 0.00 0.00 0.00 99 1015.2
20260901113526 79 205 0.0 1.0 0.00 0.00 0.00 99 1015.6